Wind_Speed
3 3 3 3 3 3 3 4 4 4 4 3 4 5 5 6 7 7 7 7 6 6 7 7 6 6 6 6 6 5 5 6 6 7 7 7 8 8 8 8 8 9 9
3 3 3 3 3 3 4 4 5 6 5 5 5 5 6 7 7 6 7 7 7 7 8 8 8 8 7 7 7 6 6 7 7 7 7 8 8 9 9 9 9 9 9
4 3 3 3 4 4 4 5 6 6 6 6 5 5 6 6 6 5 6 7 7 8 8 9 8 8 7 7 7 7 7 7 8 9 8 9 8 9 9 10 10 10 10
4 4 3 3 3 4 4 5 6 7 7 7 7 7 7 7 7 6 6 6 7 8 8 9 8 9 8 8 8 8 8 9 9 9 10 10 10 10 11 11 11 11 10
4 4 4 4 4 4 4 5 6 7 7 8 8 8 8 8 8 8 8 8 8 9 10 10 9 9 9 9 10 10 10 10 10 11 11 12 12 12 12 12 11 11 11
4 4 4 4 5 5 5 5 7 8 9 9 9 9 9 9 9 9 9 10 10 10 10 10 10 10 11 11 11 11 11 11 12 12 12 12 13 13 13 13 13 12 12
5 5 5 5 6 6 6 6 7 8 9 10 10 10 11 10 10 10 10 11 11 11 11 11 12 12 12 12 13 13 13 13 13 12 12 13 14 14 14 14 14 14 14
6 6 6 6 6 6 6 6 7 8 9 10 10 11 11 11 12 12 12 12 12 13 13 13 13 13 13 13 14 14 14 14 13 13 13 14 14 14 14 14 14 14 15
7 7 7 7 7 7 8 8 8 9 9 10 10 10 11 12 12 12 12 13 13 14 13 13 14 15 15 14 14 14 14 14 14 14 14 14 14 14 13 13 14 15 16
8 8 8 8 9 9 9 9 10 10 10 11 11 11 11 12 12 13 13 14 15 15 15 15 15 16 16 16 15 15 15 15 15 15 15 15 15 15 14 15 16 16 16
9 9 9 10 10 10 11 11 11 11 12 12 12 12 13 13 13 14 14 14 15 16 16 16 16 17 17 17 16 16 16 16 16 15 15 15 15 15 15 16 17 17 17
11 11 11 11 11 11 12 13 13 13 13 13 13 14 14 15 15 15 16 16 16 16 17 17 17 18 18 17 17 17 17 17 17 16 16 16 16 16 16 17 18 18 18
11 12 12 12 13 13 14 14 15 15 15 15 16 16 16 17 17 17 17 17 18 17 18 18 18 19 19 18 18 18 18 18 18 18 17 17 17 16 16 17 18 18 18
13 13 14 14 15 15 16 16 17 17 17 17 17 18 18 18 19 19 18 18 18 18 18 18 18 19 19 19 19 19 19 19 19 19 19 18 18 17 18 18 18 19 19
15 15 16 16 16 17 18 19 19 19 19 18 19 19 19 19 19 19 19 19 18 18 18 19 19 19 20 20 20 20 21 21 21 20 20 19 19 19 19 19 20 20 20
16 17 17 17 18 19 20 20 21 21 21 21 20 20 20 20 19 19 19 19 19 20 20 19 20 20 20 20 20 20 21 21 22 21 21 21 20 20 20 20 21 21 20
17 18 18 18 19 19 20 21 21 21 22 22 22 21 21 20 20 20 20 20 20 20 20 21 21 21 21 21 21 21 21 22 21 21 21 22 22 21 21 21 21 21 21
19 19 19 20 20 21 21 21 22 22 22 22 21 21 21 21 21 21 21 21 21 22 22 22 22 23 23 22 22 22 21 21 21 21 21 21 21 21 21 21 21 21 21
21 20 20 21 21 22 22 23 23 22 22 22 22 22 22 23 23 22 22 23 23 23 23 23 24 24 24 24 23 23 23 24 24 23 22 22 22 22 22 22 21 20 21
21 21 22 22 22 22 23 23 23 23 23 22 23 23 23 24 24 24 23 24 24 24 25 25 25 24 25 25 25 25 25 26 26 25 24 24 23 23 23 23 23 22 22
21 22 23 23 24 24 24 23 24 24 24 23 24 24 24 25 25 25 25 25 25 25 26 25 25 25 25 26 26 27 27 27 26 26 26 26 25 25 25 25 24 24 24
22 23 24 24 24 24 24 24 24 24 24 24 25 25 25 26 26 26 26 26 26 27 27 27 27 27 27 28 28 29 28 27 27 27 27 28 27 27 26 26 26 26 26
24 24 24 24 25 25 25 25 25 25 24 24 25 26 26 27 27 27 27 27 27 28 28 28 28 28 29 29 29 29 29 28 28 28 29 29 29 29 29 28 28 28 28
24 25 25 25 25 26 26 26 26 26 26 25 25 26 26 27 27 27 27 27 28 28 29 30 29 29 29 30 30 29 29 29 29 29 29 29 29 30 30 30 30 30 29
25 25 26 26 26 25 25 25 25 25 25 25 25 25 26 27 27 28 28 28 28 29 29 29 29 29 29 30 30 30 30 30 29 29 30 30 30 30 30 30 30 30 29
25 26 26 26 25 25 25 25 25 25 25 25 25 25 26 27 27 26 27 27 28 29 29 29 29 29 29 29 30 30 30 30 29 29 29 30 30 30 30 30 30 29 29
Wind_Direction
215 218 230 233 227 213 213 218 222 229 242 253 255 252 255 261 264 255 248 244 246 256 264 267 280 287 283 284 279 285 275 268 271 274 275 275 276 277 277 270 269 270 268
232 230 237 236 230 230 232 231 232 236 244 251 261 262 262 268 268 255 250 250 253 257 262 267 275 283 280 277 279 284 279 270 267 272 276 277 280 282 282 277 271 273 271
240 234 237 241 239 236 235 236 236 241 246 250 257 263 272 274 274 257 250 254 257 258 261 266 272 277 284 291 284 287 283 282 278 276 277 279 282 281 281 278 272 271 267
254 253 249 248 253 251 250 243 244 248 248 253 257 261 262 268 267 261 261 269 270 270 271 273 275 282 286 294 292 290 290 284 282 282 281 281 280 280 280 275 273 267 263
263 263 261 259 264 265 263 256 251 252 252 256 259 259 260 262 262 260 259 265 270 275 275 273 277 278 279 284 284 284 286 285 283 281 281 280 281 281 281 273 270 268 266
268 275 270 264 268 271 269 266 258 259 260 261 262 261 261 263 266 266 268 271 273 274 274 272 274 277 278 281 281 282 283 281 281 280 281 283 282 278 276 273 270 269 269
269 271 270 270 272 275 276 274 267 263 264 264 263 265 266 266 267 267 272 274 275 271 272 274 276 276 276 277 278 279 280 282 280 278 280 282 284 279 273 273 272 272 270
269 269 268 271 274 276 277 280 280 277 273 271 268 267 269 271 268 267 271 274 275 274 275 275 277 276 279 280 277 276 279 280 281 280 279 283 283 277 274 274 275 272 271
269 266 270 271 273 277 278 281 282 285 284 279 275 272 272 272 270 271 273 276 277 277 277 277 278 277 279 281 279 278 280 279 279 282 283 283 280 277 274 273 274 272 273
263 265 266 270 273 276 277 278 281 283 284 284 280 278 278 276 273 273 276 278 280 281 280 281 279 280 281 281 279 280 279 278 277 280 283 282 280 278 273 274 273 272 272
268 268 267 271 275 277 278 278 279 281 282 284 283 280 278 278 279 277 280 283 283 282 283 282 283 282 282 281 279 280 280 280 280 279 279 280 280 280 277 277 274 273 272
269 269 270 272 275 276 278 279 279 280 282 283 283 283 282 281 281 281 282 282 284 283 283 283 283 283 284 285 281 281 280 281 280 279 280 278 278 279 278 278 275 275 273
271 271 271 274 274 275 277 278 279 278 279 281 282 282 282 281 282 281 282 282 282 281 280 281 283 282 284 284 283 283 282 280 281 280 281 280 279 277 279 279 277 278 277
273 275 276 276 276 276 276 277 277 278 279 281 282 283 283 282 283 282 282 283 282 280 280 281 284 284 283 284 284 283 283 282 282 280 279 279 279 278 279 278 278 279 278
275 274 276 276 276 277 277 277 278 278 279 280 282 283 283 284 283 284 283 281 280 280 281 282 284 284 284 285 285 283 283 282 281 279 278 277 277 277 278 277 278 279 279
277 275 274 277 277 278 279 279 278 276 277 278 280 281 284 283 283 283 281 279 278 278 280 283 284 286 284 285 288 288 286 283 281 279 278 278 278 278 276 277 277 276 277
278 277 276 276 278 279 280 280 280 279 278 278 278 278 280 280 281 281 283 281 279 279 279 281 284 285 287 287 288 290 289 285 281 279 278 278 277 276 275 275 276 275 275
279 280 279 278 278 279 280 281 281 280 280 278 277 276 278 277 277 280 281 281 281 281 280 279 282 283 285 285 286 287 288 285 282 280 279 278 277 276 276 275 275 276 275
279 280 279 279 279 280 280 281 282 281 279 278 277 277 277 277 277 278 279 280 281 281 280 279 282 282 283 284 285 286 287 284 282 280 279 277 274 273 274 273 274 275 276
279 279 279 279 280 281 281 281 281 281 279 278 277 277 277 278 277 278 279 280 280 280 281 282 282 284 283 283 285 286 286 284 280 278 278 276 273 271 271 272 272 274 275
281 280 280 279 280 280 280 281 279 278 278 277 277 277 278 279 279 277 278 279 279 280 281 282 283 283 283 284 284 284 284 283 280 278 276 274 273 271 271 271 272 273 274
282 282 282 279 279 279 279 280 278 277 278 278 279 279 279 279 278 277 278 277 278 279 280 281 282 283 283 283 283 283 282 280 279 277 276 273 272 271 270 270 272 273 273
282 281 282 281 279 279 279 279 279 277 277 279 280 280 279 278 278 277 278 278 279 280 280 281 281 282 281 281 281 282 281 279 279 277 276 275 273 271 270 270 272 273 273
282 282 282 281 280 279 278 277 277 278 278 279 280 281 281 281 281 280 279 278 279 280 281 281 282 281 281 279 278 279 280 279 279 277 277 277 275 273 271 270 272 273 273
282 283 283 281 279 278 276 276 277 277 277 280 281 282 283 283 282 280 280 280 279 280 282 283 282 281 280 278 278 277 278 279 278 277 276 276 276 275 273 271 270 272 273
282 283 282 280 279 277 275 275 277 278 278 280 281 281 283 284 284 281 281 282 281 281 282 283 283 281 280 280 278 278 278 278 277 276 275 275 274 275 275 273 272 272 273
Height
5894 5894 5894 5894 5894 5894 5894 5894 5895 5895 5895 5895 5894 5894 5894 5894 5893 5893 5893 5894 5894 5894 5894 5893 5893 5892 5892 5891 5890 5890 5890 5890 5890 5890 5889 5889 5889 5888 5888 5887 5887 5887 5887
5894 5894 5894 5894 5894 5894 5894 5894 5894 5894 5894 5894 5894 5893 5893 5892 5891 5891 5891 5892 5892 5892 5892 5892 5891 5891 5890 5890 5889 5889 5889 5888 5888 5888 5888 5887 5887 5886 5886 5886 5885 5885 5885
5893 5893 5893 5893 5893 5893 5893 5893 5894 5894 5893 5893 5893 5892 5892 5891 5890 5890 5890 5891 5891 5891 5891 5890 5890 5889 5888 5888 5887 5887 5887 5886 5886 5886 5886 5885 5885 5885 5884 5884 5883 5883 5883
5893 5893 5893 5893 5893 5893 5893 5893 5893 5892 5892 5892 5892 5892 5891 5891 5890 5889 5889 5889 5889 5889 5889 5888 5888 5887 5887 5887 5886 5886 5885 5884 5884 5884 5883 5883 5883 5882 5882 5881 5881 5881 5881
5892 5892 5892 5892 5892 5892 5892 5892 5892 5891 5891 5891 5891 5890 5890 5890 5889 5889 5889 5888 5888 5887 5887 5886 5886 5886 5885 5885 5884 5884 5883 5883 5882 5881 5881 5880 5880 5880 5879 5878 5878 5878 5878
5892 5891 5891 5891 5891 5891 5891 5891 5890 5890 5890 5889 5889 5889 5888 5888 5888 5887 5887 5886 5886 5885 5885 5884 5884 5884 5883 5883 5882 5882 5881 5880 5879 5879 5878 5877 5877 5876 5876 5875 5875 5875 5875
5891 5890 5890 5890 5890 5890 5889 5889 5889 5888 5888 5887 5887 5887 5886 5886 5885 5885 5884 5884 5883 5883 5882 5882 5881 5881 5881 5880 5880 5879 5878 5877 5876 5876 5875 5874 5873 5873 5872 5872 5872 5872 5872
5889 5889 5889 5889 5888 5888 5888 5887 5887 5886 5886 5885 5885 5884 5884 5884 5883 5883 5882 5882 5881 5880 5880 5879 5879 5878 5877 5877 5876 5876 5875 5874 5873 5872 5871 5871 5870 5869 5869 5869 5868 5868 5868
5888 5887 5887 5887 5887 5886 5886 5885 5885 5884 5884 5883 5883 5882 5882 5881 5880 5880 5880 5879 5878 5877 5877 5876 5876 5875 5874 5873 5873 5872 5871 5871 5870 5869 5868 5867 5866 5866 5865 5865 5865 5864 5864
5885 5885 5885 5885 5884 5884 5884 5883 5883 5882 5882 5881 5880 5880 5879 5878 5878 5878 5877 5876 5875 5874 5873 5873 5872 5871 5871 5870 5869 5868 5867 5866 5865 5865 5864 5863 5863 5862 5862 5861 5861 5860 5860
5883 5883 5883 5882 5882 5882 5881 5880 5880 5880 5879 5878 5878 5877 5876 5875 5875 5874 5874 5873 5872 5871 5870 5869 5868 5867 5867 5866 5865 5864 5864 5863 5862 5861 5860 5860 5859 5858 5858 5857 5856 5856 5856
5880 5880 5880 5879 5879 5879 5878 5878 5877 5877 5876 5875 5874 5874 5873 5872 5871 5871 5870 5869 5868 5867 5866 5865 5864 5864 5863 5862 5861 5860 5860 5859 5858 5857 5856 5856 5855 5854 5854 5853 5852 5851 5851
5877 5877 5877 5876 5876 5875 5875 5874 5874 5873 5872 5872 5871 5870 5869 5868 5867 5866 5866 5865 5864 5863 5862 5861 5860 5859 5858 5858 5857 5856 5855 5854 5854 5853 5852 5851 5851 5850 5849 5849 5848 5847 5847
5874 5874 5873 5872 5872 5872 5871 5871 5870 5869 5869 5868 5867 5866 5865 5864 5863 5862 5861 5860 5859 5859 5858 5857 5856 5855 5854 5853 5852 5851 5850 5849 5849 5848 5847 5847 5846 5846 5845 5844 5843 5843 5842
5870 5870 5869 5868 5867 5867 5866 5866 5865 5864 5864 5863 5862 5861 5860 5859 5858 5857 5856 5856 5855 5854 5854 5852 5851 5850 5849 5848 5847 5846 5845 5844 5843 5843 5842 5842 5841 5841 5840 5839 5838 5838 5837
5865 5865 5864 5863 5863 5862 5861 5860 5860 5859 5858 5857 5857 5856 5855 5854 5853 5852 5851 5850 5850 5849 5848 5848 5846 5845 5844 5843 5841 5840 5839 5838 5838 5837 5837 5837 5836 5835 5835 5834 5833 5832 5832
5860 5859 5859 5858 5857 5856 5856 5855 5854 5853 5852 5851 5851 5850 5849 5849 5848 5847 5846 5845 5844 5844 5843 5842 5841 5840 5838 5837 5836 5835 5833 5832 5832 5831 5831 5831 5830 5830 5829 5828 5828 5827 5827
5855 5854 5853 5853 5852 5851 5850 5849 5848 5847 5846 5845 5845 5844 5844 5843 5842 5841 5840 5840 5839 5838 5838 5837 5835 5834 5833 5831 5830 5829 5828 5827 5826 5825 5825 5824 5824 5824 5823 5823 5822 5821 5821
5850 5849 5848 5847 5846 5845 5844 5843 5842 5841 5840 5839 5839 5838 5838 5837 5836 5835 5835 5834 5833 5832 5831 5830 5829 5828 5827 5825 5824 5823 5822 5821 5820 5819 5819 5818 5818 5817 5817 5817 5817 5816 5816
5843 5843 5842 5841 5840 5839 5838 5837 5836 5835 5834 5833 5832 5831 5831 5830 5830 5829 5828 5828 5827 5826 5825 5824 5823 5821 5820 5819 5818 5816 5815 5814 5813 5812 5812 5811 5811 5810 5811 5811 5810 5810 5810
5837 5836 5835 5834 5833 5832 5831 5830 5829 5828 5827 5826 5825 5825 5824 5823 5823 5822 5821 5821 5820 5819 5818 5817 5816 5815 5814 5812 5811 5809 5808 5806 5805 5805 5804 5804 5803 5803 5803 5804 5803 5803 5803
5830 5829 5828 5827 5826 5825 5824 5823 5822 5821 5820 5819 5818 5818 5817 5816 5815 5814 5814 5813 5812 5811 5810 5809 5808 5807 5806 5804 5803 5801 5800 5799 5798 5798 5797 5796 5796 5796 5796 5796 5796 5796 5796
5823 5822 5821 5819 5818 5818 5817 5816 5814 5813 5813 5812 5811 5810 5809 5808 5808 5807 5806 5805 5804 5803 5803 5802 5800 5799 5798 5797 5795 5793 5792 5791 5790 5789 5788 5788 5788 5788 5788 5788 5788 5788 5788
5816 5814 5813 5812 5811 5810 5809 5808 5807 5806 5806 5805 5804 5803 5802 5801 5800 5799 5798 5797 5796 5795 5794 5793 5792 5791 5790 5788 5787 5785 5784 5783 5782 5781 5780 5780 5780 5779 5779 5780 5780 5780 5779
5808 5807 5805 5804 5803 5802 5801 5801 5800 5799 5798 5797 5796 5795 5794 5793 5792 5791 5790 5789 5788 5787 5786 5784 5783 5782 5781 5779 5778 5777 5776 5775 5774 5773 5772 5772 5771 5771 5770 5770 5771 5771 5770
5801 5799 5798 5796 5795 5795 5794 5793 5792 5791 5791 5790 5788 5788 5787 5786 5784 5783 5782 5781 5780 5779 5778 5776 5774 5773 5772 5771 5769 5768 5767 5766 5765 5765 5764 5763 5763 5762 5762 5762 5762 5762 5762